Inverness, United Kingdom

5:34 PM GMT on December 18, 2017 (GMT +0000)
Inverness

Weather History for EGPE - September, 2013

Change the Weather History Date:

Friday, September 6, 2013

  Actual Average Record
Temperature  
Mean Temperature 48 °F -  
Max Temperature 57 °F 58 °F 71 °F (2005)
Min Temperature 39 °F 45 °F 39 °F (2013)
Degree Days  
Heating Degree Days 17    
Moisture  
Dew Point 45 °F    
Average Humidity 84    
Maximum Humidity 100    
Minimum Humidity 67    
Precipitation  
Precipitation 0.00 in - - ()
Sea Level Pressure  
Sea Level Pressure 29.99 in    
Wind  
Wind Speed 6 mph ()    
Max Wind Speed 15 mph    
Max Gust Speed -    
Visibility 6.2 miles    
Events Rain    
Averages and records for this station are not official NWS values.
T = Trace of Precipitation, MM = Missing Value Source: Averaged Metar Reports

Daily Weather History Graph

Daily Weather History Graph

Search for Another Location

Airport or City:

Trip Planner

Search our weather history database for the weather conditions in past years. The results will help you decide how hot, cold, wet, or windy it might be!

Date:

Astronomy

Sep. 06, 2013 Rise Set
Actual Time 6:27 AM BST 7:59 PM BST
Civil Twilight 5:47 AM BST 8:40 PM BST
Nautical Twilight 4:56 AM BST 9:30 PM BST
Astronomical Twilight 3:58 AM BST 10:27 PM BST
Moon 7:48 AM BST (9/6) 7:47 PM BST (9/6)
Length of Visible Light 14h 52m
Length of Day
13h 32m
New Moon, 1% of the Moon is Illuminated
Sep 6
New Moon
Sep 12
First Quarter
Sep 19
Full
Sep 27
Last Quarter
Oct 5
New

Hourly Weather History & Observations

Time (BST) Temp. Windchill Dew Point Humidity Pressure Visibility Wind Dir Wind Speed Gust Speed Precip Events Conditions
12:20 AM 50.0 °F - 44.6 °F 82% 29.95 in 6.2 mi WSW 3.5 mph - N/A   Mostly Cloudy
12:50 AM 46.4 °F 45.2 °F 42.8 °F 87% 29.95 in 6.2 mi SW 3.5 mph - N/A   Unknown
1:20 AM 44.6 °F 42.2 °F 42.8 °F 93% 29.95 in 6.2 mi SSW 4.6 mph - N/A   Unknown
1:50 AM 44.6 °F 43.1 °F 42.8 °F 93% 29.95 in 6.2 mi SSW 3.5 mph - N/A   Unknown
2:20 AM 46.4 °F - 44.6 °F 93% 29.95 in 6.2 mi SSW 2.3 mph - N/A   Unknown
3:20 AM 46.4 °F 44.3 °F 44.6 °F 93% 29.95 in 6.2 mi SW 4.6 mph - N/A   Scattered Clouds
3:50 AM 42.8 °F 40.1 °F 41.0 °F 93% 29.95 in 6.2 mi SSW 4.6 mph - N/A   Scattered Clouds
4:20 AM 42.8 °F 41.1 °F 41.0 °F 93% 29.95 in 6.2 mi SSW 3.5 mph - N/A   Partly Cloudy
4:50 AM 39.2 °F - 39.2 °F 100% 29.95 in 6.2 mi Calm Calm - N/A   Partly Cloudy
5:20 AM 39.2 °F - 39.2 °F 100% 29.95 in 6.2 mi WSW 2.3 mph - N/A   Overcast
5:50 AM 41.0 °F - 41.0 °F 100% 29.95 in 6.2 mi SW 2.3 mph - N/A   Mostly Cloudy
6:20 AM 42.8 °F 41.1 °F 42.8 °F 100% 29.95 in 6.2 mi SW 3.5 mph - N/A   Mostly Cloudy
6:50 AM 44.6 °F 42.2 °F 42.8 °F 93% 29.95 in 6.2 mi SW 4.6 mph - N/A   Mostly Cloudy
7:20 AM 44.6 °F 42.2 °F 44.6 °F 100% 29.98 in 6.2 mi SW 4.6 mph - N/A   Mostly Cloudy
7:50 AM 46.4 °F 43.5 °F 44.6 °F 93% 29.98 in 6.2 mi SW 5.8 mph - N/A   Mostly Cloudy
8:20 AM 46.4 °F 43.5 °F 44.6 °F 93% 29.98 in 6.2 mi SW 5.8 mph - N/A   Scattered Clouds
8:50 AM 48.2 °F - 44.6 °F 87% 29.98 in 6.2 mi SW 6.9 mph - N/A   Scattered Clouds
9:20 AM 50.0 °F - 46.4 °F 87% 29.98 in 6.2 mi SW 4.6 mph - N/A   Scattered Clouds
9:50 AM 50.0 °F - 46.4 °F 87% 29.98 in 6.2 mi SW 4.6 mph - N/A   Scattered Clouds
10:20 AM 51.8 °F - 46.4 °F 82% 29.98 in 6.2 mi Calm Calm - N/A   Scattered Clouds
10:50 AM 53.6 °F - 46.4 °F 77% 29.98 in 6.2 mi Calm Calm - N/A   Partly Cloudy
11:20 AM 55.4 °F - 46.4 °F 72% 30.01 in 6.2 mi Variable 3.5 mph - N/A   Partly Cloudy
11:50 AM 55.4 °F - 46.4 °F 72% 29.98 in 6.2 mi NNE 8.1 mph - N/A   Partly Cloudy
12:20 PM 55.4 °F - 44.6 °F 67% 30.01 in 6.2 mi NE 6.9 mph - N/A   Scattered Clouds
12:50 PM 57.2 °F - 46.4 °F 67% 29.98 in 6.2 mi NE 6.9 mph - N/A   Scattered Clouds
1:20 PM 57.2 °F - 46.4 °F 67% 29.98 in 6.2 mi NE 12.7 mph - N/A   Scattered Clouds
1:50 PM 55.4 °F - 48.2 °F 77% 30.01 in 6.2 mi NNE 9.2 mph - N/A   Scattered Clouds
2:20 PM 55.4 °F - 48.2 °F 77% 30.01 in 6.2 mi North 13.8 mph - N/A   Mostly Cloudy
2:50 PM 51.8 °F - 48.2 °F 88% 30.01 in 6.2 mi North 11.5 mph - N/A   Mostly Cloudy
3:20 PM 51.8 °F - 48.2 °F 88% 30.01 in 6.2 mi North 10.4 mph - N/A Rain Light Rain Showers
3:50 PM 53.6 °F - 50.0 °F 88% 29.98 in 6.2 mi NNE 6.9 mph - N/A   Mostly Cloudy
4:20 PM 53.6 °F - 48.2 °F 82% 29.98 in 6.2 mi NE 13.8 mph - N/A   Mostly Cloudy
4:50 PM 53.6 °F - 48.2 °F 82% 30.01 in 6.2 mi NE 13.8 mph - N/A   Scattered Clouds
5:20 PM 53.6 °F - 46.4 °F 77% 30.01 in 6.2 mi ENE 15.0 mph - N/A   Scattered Clouds
5:50 PM 53.6 °F - 46.4 °F 77% 30.01 in 6.2 mi NE 12.7 mph - N/A   Mostly Cloudy
6:20 PM 53.6 °F - 44.6 °F 72% 30.01 in 6.2 mi NNE 13.8 mph - N/A   Mostly Cloudy
6:50 PM 51.8 °F - 46.4 °F 82% 30.01 in 6.2 mi NE 10.4 mph - N/A Rain Light Rain Showers
7:20 PM 51.8 °F - 44.6 °F 76% 30.01 in 6.2 mi NE 13.8 mph - N/A   Mostly Cloudy
7:50 PM 51.8 °F - 44.6 °F 76% 30.01 in 6.2 mi NNE 13.8 mph - N/A   Scattered Clouds
8:20 PM 51.8 °F - 42.8 °F 71% 30.01 in 6.2 mi NNE 12.7 mph - N/A   Mostly Cloudy
8:50 PM 51.8 °F - 42.8 °F 71% 30.04 in 6.2 mi North 12.7 mph - N/A   Mostly Cloudy
9:20 PM 50.0 °F - 44.6 °F 82% 30.01 in 6.2 mi NNE 15.0 mph - N/A   Mostly Cloudy
9:50 PM 50.0 °F - 44.6 °F 82% 30.04 in 6.2 mi North 11.5 mph - N/A   Mostly Cloudy
10:20 PM 50.0 °F - 44.6 °F 82% 30.01 in 6.2 mi North 11.5 mph - N/A   Mostly Cloudy
10:50 PM 50.0 °F - 44.6 °F 82% 30.01 in 6.2 mi North 12.7 mph - N/A   Overcast
11:20 PM 50.0 °F - 44.6 °F 82% 30.01 in 6.2 mi North 12.7 mph - N/A   Overcast
11:50 PM 50.0 °F - 44.6 °F 82% 30.01 in 6.2 mi North 12.7 mph - N/A   Drizzle